Bellingham, WA

10:20 PM PDT on March 26, 2017 (GMT -0700)
Bellingham International

Weather History for KBLI - January, 2014

Change the Weather History Date:

Saturday, January 25, 2014

  Actual Average Record
Temperature  
Mean Temperature 40 °F 40 °F  
Max Temperature 51 °F 47 °F 59 °F (2015)
Min Temperature 29 °F 33 °F -2 °F (1950)
Degree Days  
Heating Degree Days 25 25  
Month to date heating degree days 582 648  
Cooling Degree Days 0 0  
Month to date cooling degree days 0 0  
Year to date cooling degree days 0 0  
Moisture  
Dew Point 30 °F    
Average Humidity 77    
Maximum Humidity 100    
Minimum Humidity 54    
Precipitation  
Precipitation 0.00 in 0.14 in 1.11 in (1971)
Month to date precipitation 2.24 3.83  
Year to date precipitation 2.24 3.83  
Sea Level Pressure  
Sea Level Pressure 30.33 in    
Wind  
Wind Speed 0 mph (NNW)    
Max Wind Speed 8 mph    
Max Gust Speed 9 mph    
Visibility 3 miles    
Events Fog    
T = Trace of Precipitation, MM = Missing Value Source: NWS Daily Summary

Daily Weather History Graph

Daily Weather History Graph

Search for Another Location

Airport or City:

Trip Planner

Search our weather history database for the weather conditions in past years. The results will help you decide how hot, cold, wet, or windy it might be!

Date:

Astronomy

Jan. 25, 2014 Rise Set
Actual Time 7:48 AM PST 4:57 PM PST
Civil Twilight 7:13 AM PST 5:31 PM PST
Nautical Twilight 6:35 AM PST 6:10 PM PST
Astronomical Twilight 5:58 AM PST 6:47 PM PST
Moon 2:24 AM PST (1/25) 12:02 PM PST (1/25)
Length of Visible Light 10h 17m
Length of Day
9h 08m
Waning Crescent, 33% of the Moon is Illuminated
Jan 25
Waning Crescent
Jan 30
New
Feb 6
First Quarter
Feb 14
Full
Feb 22
Last Quarter

Hourly Weather History & Observations

Time (PST) Temp. Windchill Dew Point Humidity Pressure Visibility Wind Dir Wind Speed Gust Speed Precip Events Conditions
12:11 AM 32.0 °F - 32.0 °F 100% 30.32 in 1.0 mi Calm Calm - N/A   Clear
12:42 AM 33.8 °F - 30.2 °F 87% 30.32 in 0.5 mi Calm Calm - N/A Fog Fog
12:48 AM 33.8 °F - 30.2 °F 87% 30.32 in 1.0 mi Calm Calm - N/A   Clear
12:53 AM 32.0 °F - 30.0 °F 92% 30.35 in 1.2 mi Calm Calm - N/A   Clear
12:55 AM 32.0 °F - 30.2 °F 93% 30.32 in 0.8 mi Calm Calm - N/A   Mist
1:04 AM 32.0 °F - 30.2 °F 93% 30.32 in 0.5 mi Calm Calm - N/A Fog Fog
1:18 AM 32.0 °F - 30.2 °F 93% 30.33 in 0.5 mi Calm Calm - N/A Fog Fog
1:25 AM 30.2 °F - 30.2 °F 100% 30.33 in 1.0 mi Calm Calm - N/A   Mist
1:32 AM 32.0 °F - 30.2 °F 93% 30.32 in 1.2 mi Calm Calm - N/A   Partly Cloudy
1:36 AM 32.0 °F - 30.2 °F 93% 30.32 in 0.8 mi Calm Calm - N/A   Mist
1:53 AM 32.0 °F - 30.0 °F 92% 30.35 in 0.8 mi Calm Calm - N/A   Mist
1:55 AM 30.2 °F - 30.2 °F 100% 30.32 in 1.2 mi Calm Calm - N/A   Scattered Clouds
2:00 AM 30.2 °F - 28.4 °F 93% 30.32 in 0.8 mi Calm Calm - N/A   Mist
2:08 AM 32.0 °F - 30.2 °F 93% 30.32 in 0.2 mi Calm Calm - N/A Fog Fog
2:21 AM 33.8 °F - 30.2 °F 87% 30.32 in 1.0 mi Calm Calm - N/A   Mist
2:40 AM 32.0 °F - 30.2 °F 93% 30.33 in 2.0 mi Calm Calm - N/A   Scattered Clouds
2:49 AM 30.2 °F - 30.2 °F 100% 30.33 in 1.8 mi Calm Calm - N/A   Scattered Clouds
2:53 AM 30.9 °F - 28.9 °F 92% 30.36 in 1.2 mi Calm Calm - N/A   Scattered Clouds
2:56 AM 32.0 °F - 30.2 °F 93% 30.33 in 0.8 mi Calm Calm - N/A   Mist
3:04 AM 32.0 °F - 30.2 °F 93% 30.33 in 0.5 mi Calm Calm - N/A Fog Fog
3:14 AM 30.2 °F - 28.4 °F 93% 30.33 in 0.2 mi Calm Calm - N/A Fog Light Freezing Fog
3:23 AM 32.0 °F - 30.2 °F 93% 30.32 in 0.2 mi Calm Calm - N/A Fog Fog
3:35 AM 32.0 °F - 30.2 °F 93% 30.32 in 1.0 mi Calm Calm - N/A   Mist
3:39 AM 32.0 °F - 30.2 °F 93% 30.32 in 0.5 mi Calm Calm - N/A Fog Fog
3:53 AM 30.9 °F - 30.0 °F 96% 30.35 in 0.5 mi Calm Calm - N/A Fog Light Freezing Fog
4:26 AM 28.4 °F - 28.4 °F 100% 30.32 in 0.8 mi Calm Calm - N/A   Mist
4:35 AM 30.2 °F - 28.4 °F 93% 30.33 in 1.2 mi Calm Calm - N/A   Scattered Clouds
4:46 AM 30.2 °F - 28.4 °F 93% 30.33 in 2.0 mi Calm Calm - N/A   Partly Cloudy
4:53 AM 30.0 °F - 28.0 °F 92% 30.37 in 3.0 mi Calm Calm - N/A   Partly Cloudy
5:00 AM 30.2 °F - 28.4 °F 93% 30.34 in 1.8 mi Calm Calm - N/A   Partly Cloudy
5:07 AM 30.2 °F - 28.4 °F 93% 30.34 in 3.0 mi Calm Calm - N/A   Scattered Clouds
5:13 AM 28.4 °F - 28.4 °F 100% 30.34 in 2.5 mi Calm Calm - N/A   Mostly Cloudy
5:16 AM 30.2 °F - 28.4 °F 93% 30.34 in 1.0 mi Calm Calm - N/A   Mist
5:18 AM 30.2 °F - 28.4 °F 93% 30.34 in 0.5 mi Calm Calm - N/A Fog Light Freezing Fog
5:42 AM 30.2 °F - 28.4 °F 93% 30.34 in 0.2 mi Calm Calm - N/A Fog Light Freezing Fog
5:53 AM 32.0 °F - 30.0 °F 92% 30.37 in 0.2 mi Calm Calm - N/A Fog Fog
6:01 AM 32.0 °F - 30.2 °F 93% 30.34 in 0.2 mi Calm Calm - N/A Fog Fog
6:53 AM 34.0 °F - 32.0 °F 92% 30.37 in 0.2 mi Calm Calm - N/A Fog Fog
7:00 AM 33.8 °F - 32.0 °F 93% 30.34 in 0.2 mi Calm Calm - N/A Fog Fog
7:09 AM 32.0 °F - 32.0 °F 100% 30.34 in 10.0 mi Calm Calm - N/A   Clear
7:41 AM 30.2 °F - 30.2 °F 100% 30.35 in 5.0 mi Calm Calm - N/A   Partly Cloudy
7:49 AM 32.0 °F - 28.4 °F 87% 30.35 in 0.2 mi Calm Calm - N/A Fog Fog
7:53 AM 30.0 °F 26.5 °F 28.9 °F 96% 30.39 in 0.2 mi North 3.5 mph - N/A Fog Fog
8:00 AM 30.2 °F 26.7 °F 28.4 °F 93% 30.36 in 0.5 mi NW 3.5 mph - N/A Fog Fog
8:18 AM 30.2 °F - 28.4 °F 93% 30.36 in 0.2 mi Calm Calm - N/A Fog Fog
8:36 AM 30.2 °F - 30.2 °F 100% 30.36 in 0.5 mi Calm Calm - N/A Fog Fog
8:46 AM 32.0 °F - 32.0 °F 100% 30.36 in 10.0 mi Calm Calm - N/A Fog Patches of Fog
8:53 AM 32.0 °F - 32.0 °F 100% 30.40 in 10.0 mi Calm Calm - N/A Fog Patches of Fog
9:53 AM 37.0 °F - 36.0 °F 96% 30.41 in 0.5 mi Calm Calm - N/A Fog Fog
10:19 AM 39.2 °F - 37.4 °F 93% 30.38 in 10.0 mi Calm Calm - N/A Fog Patches of Fog
10:53 AM 42.1 °F - 39.0 °F 89% 30.42 in 10.0 mi Calm Calm - N/A   Clear
11:53 AM 46.9 °F - 39.0 °F 74% 30.40 in 10.0 mi Calm Calm - N/A   Clear
12:53 PM 48.0 °F - 37.9 °F 68% 30.39 in 10.0 mi Calm Calm - N/A   Clear
1:53 PM 48.0 °F - 33.1 °F 56% 30.38 in 10.0 mi Calm Calm - N/A   Clear
2:53 PM 48.9 °F - 32.0 °F 52% 30.36 in 10.0 mi South 3.5 mph - N/A   Clear
3:53 PM 46.9 °F - 33.1 °F 59% 30.35 in 10.0 mi Calm Calm - N/A   Clear
4:53 PM 39.9 °F - 33.1 °F 77% 30.34 in 10.0 mi Calm Calm - N/A   Clear
5:53 PM 36.0 °F - 30.9 °F 82% 30.34 in 10.0 mi Calm Calm - N/A   Clear
6:53 PM 35.1 °F - 30.9 °F 85% 30.33 in 10.0 mi Calm Calm - N/A   Clear
7:53 PM 33.1 °F - 30.0 °F 89% 30.33 in 10.0 mi Calm Calm - N/A   Clear
8:53 PM 32.0 °F - 30.0 °F 92% 30.33 in 9.0 mi Calm Calm - N/A   Clear
9:10 PM 32.0 °F - 30.2 °F 93% 30.29 in 1.8 mi Calm Calm - N/A   Partly Cloudy
9:14 PM 32.0 °F - 30.2 °F 93% 30.29 in 0.8 mi Calm Calm - N/A   Mist
9:19 PM 32.0 °F - 30.2 °F 93% 30.29 in 6.0 mi Calm Calm - N/A   Scattered Clouds
9:53 PM 32.0 °F - 28.9 °F 88% 30.32 in 6.0 mi Calm Calm - N/A   Scattered Clouds
10:07 PM 32.0 °F - 30.2 °F 93% 30.29 in 1.8 mi Calm Calm - N/A   Mostly Cloudy
10:10 PM 32.0 °F - 30.2 °F 93% 30.29 in 0.8 mi Calm Calm - N/A   Mist
10:18 PM 32.0 °F - 30.2 °F 93% 30.29 in 0.5 mi Calm Calm - N/A Fog Fog
10:22 PM 32.0 °F - 30.2 °F 93% 30.29 in 1.0 mi Calm Calm - N/A   Mist
10:27 PM 32.0 °F - 30.2 °F 93% 30.29 in 3.0 mi Calm Calm - N/A   Overcast
10:48 PM 30.2 °F - 28.4 °F 93% 30.30 in 1.8 mi Calm Calm - N/A   Mostly Cloudy
10:53 PM 30.9 °F - 28.0 °F 89% 30.33 in 1.0 mi Calm Calm - N/A   Mist
11:02 PM 30.2 °F - 26.6 °F 86% 30.29 in 0.8 mi Calm Calm - N/A   Mist
11:19 PM 30.2 °F - 28.4 °F 93% 30.29 in 0.5 mi Calm Calm - N/A Fog Light Freezing Fog
11:35 PM 30.2 °F - 28.4 °F 93% 30.29 in 0.5 mi Calm Calm - N/A Fog Light Freezing Fog
11:44 PM 30.2 °F - 28.4 °F 93% 30.29 in 1.0 mi Calm Calm - N/A   Mist
11:53 PM 30.0 °F - 28.9 °F 96% 30.31 in 0.5 mi Calm Calm - N/A Fog Light Freezing Fog